Timestamp[UTC];2m Lufttemperatur [degC] (tas);Stations-Luftdruck [Pa] (ps);relative Luftfeuchtigkeit [%] (hurs);spezifische Luftfeuchtigkeit [kg/kg] (huss);Niederschlagsmenge [mm] (pr);Windgeschwindigkeit in 2m [m/s] (sfcWind);Windrichtung [deg];maximale Windgeschwindigkeit [m/s] (wsgsmax);u-Windkomponente [m/s] (uas);v-Windkomponente [m/s] (vas);Sonneneinstrahlung [W/m2];Blitzrate [n];Blitzentfernung [km];Bodenfeuchte in 5cm Tiefe [vol%];Bodenfeuchte in 15cm Tiefe [vol%];Bodenfeuchte in 30cm Tiefe [vol%];Bodenfeuchte in 60cm Tiefe [vol%];Bodentemperatur in 5cm Tiefe [degC];Bodentemperatur in 15cm Tiefe [degC];Bodentemperatur in 30cm Tiefe [degC];Bodentemperatur in 60cm Tiefe [degC];Matrixpotential in 30cm Tiefe [kPa];Bodenfeuchte aus CRNS [vol%] (mrso);Neutronen Anzahl [N/h]
2023-01-01 00:00:00;14,6;100520;57;0,0059;0,0;3,6;170;7,0;-3,57;0,6;0;0;nan;31,6;33,1;35,0;36,5;9,7;9,6;8,8;7,8;-11,1;31,3;1410
2023-01-01 01:00:00;nan;nan;nan;nan;0,0;nan;nan;nan;nan;nan;nan;0;nan;31,5;33,1;35,0;36,5;9,6;9,5;8,8;7,8;-11,1;nan;nan
2023-01-01 02:00:00;nan;nan;nan;nan;0,0;nan;nan;nan;nan;nan;nan;0;nan;31,5;33,1;35,1;36,5;9,5;9,4;8,8;7,8;-11,1;nan;nan
2023-01-01 03:00:00;14,5;100630;57;0,0058;0,0;3,5;166;7,9;-3,42;0,81;0;0;nan;31,5;33,1;35,1;36,5;9,4;9,3;8,8;7,9;-11,1;30,9;1221
2023-01-01 04:00:00;14,3;100630;59;0,006;0,0;2,5;176;5,4;-2,52;0,15;0;0;nan;31,5;33,0;35,1;36,5;9,3;9,3;8,8;7,9;-11,1;31,9;1340
2023-01-01 05:00:00;14,0;100680;62;0,0061;0,0;2,6;168;5,1;-2,5;0,49;0;0;nan;31,5;33,0;35,1;36,5;9,4;9,2;8,8;7,9;-11,2;31,2;1333
2023-01-01 06:00:00;nan;nan;nan;nan;0,0;nan;nan;nan;nan;nan;nan;0;nan;31,4;33,0;35,2;36,5;9,4;9,2;8,7;7,9;-11,2;nan;nan
2023-01-01 07:00:00;nan;nan;nan;nan;0,0;nan;nan;nan;nan;nan;nan;0;nan;31,4;33,0;35,2;36,5;9,4;9,2;8,7;8,0;-11,2;nan;nan
2023-01-01 08:00:00;nan;nan;nan;nan;0,0;nan;nan;nan;nan;nan;nan;0;nan;31,4;33,0;35,2;36,5;9,4;9,2;8,7;8,0;-11,2;nan;nan
2023-01-01 09:00:00;nan;nan;nan;nan;0,0;nan;nan;nan;nan;nan;nan;0;nan;31,4;32,9;35,2;36,5;9,5;9,2;8,7;8,0;-11,2;nan;nan
2023-01-01 10:00:00;nan;nan;nan;nan;0,0;nan;nan;nan;nan;nan;nan;0;nan;31,3;32,9;35,2;36,5;9,6;9,2;8,7;8,0;-11,3;nan;nan
2023-01-01 11:00:00;nan;nan;nan;nan;0,0;nan;nan;nan;nan;nan;nan;0;nan;31,3;32,9;35,2;36,5;9,8;9,3;8,7;8,1;-11,3;nan;nan
2023-01-01 12:00:00;14,1;100953;69;0,0068;0,0;2,0;202;4,1;-1,69;-0,73;51;0;nan;31,3;32,9;35,2;36,5;9,9;9,3;8,7;8,1;-11,3;31,8;1443
2023-01-01 13:00:00;14,2;100955;67;0,0067;0,0;2,2;224;6,0;-1,47;-1,49;34;0;nan;31,2;32,9;35,2;36,5;10,0;9,4;8,7;8,1;-11,3;31,5;1403
2023-01-01 14:00:00;14,2;100940;66;0,0066;0,0;2,0;194;3,2;-1,91;-0,48;27;0;nan;31,2;32,9;35,2;36,5;10,0;9,4;8,8;8,1;-11,3;31,0;1091
2023-01-01 15:00:00;nan;nan;nan;nan;0,0;nan;nan;nan;nan;nan;nan;0;nan;31,2;32,8;35,2;36,5;10,0;9,5;8,8;8,1;-11,4;nan;nan
2023-01-01 16:00:00;13,0;100950;74;0,0068;0,0;1,6;162;2,8;-1,52;0,49;0;0;nan;31,2;32,8;35,2;36,4;9,9;9,5;8,8;8,1;-11,4;31,0;1435
2023-01-01 17:00:00;12,2;100910;78;0,0069;0,0;1,7;112;2,8;-0,44;1,49;0;0;nan;31,2;32,8;35,1;36,4;9,8;9,5;8,8;8,2;-11,4;31,0;1290
2023-01-01 18:00:00;11,7;100888;82;0,007;0,39;1,5;65;2,4;0,39;1,19;0;0;nan;31,3;32,8;35,1;36,4;9,7;9,5;8,9;8,2;-11,4;30,8;1275
2023-01-01 19:00:00;10,9;100820;87;0,007;0,07;1,5;36;2,4;1,23;0,77;0;0;nan;31,4;32,8;35,1;36,4;9,7;9,4;8,9;8,2;-11,4;31,7;1369
2023-01-01 20:00:00;11,1;100713;87;0,0071;0,0;1,7;70;2,9;0,57;1,62;0;0;nan;31,4;32,8;35,1;36,4;9,6;9,4;8,9;8,2;-11,4;31,7;1322
2023-01-01 21:00:00;nan;nan;nan;nan;0,0;nan;nan;nan;nan;nan;nan;0;nan;31,4;32,8;35,1;36,4;9,6;9,4;8,9;8,2;-11,5;nan;nan
2023-01-01 22:00:00;nan;nan;nan;nan;0,0;nan;nan;nan;nan;nan;nan;0;nan;31,4;32,9;35,0;36,4;9,6;9,4;8,9;8,3;-11,5;nan;nan
2023-01-01 23:00:00;13,6;100615;74;0,0071;0,0;1,8;142;3,0;-1,38;1,08;0;0;nan;31,4;32,9;35,0;36,4;9,6;9,4;8,9;8,3;-11,5;31,9;1684
2023-01-02 00:00:00;13,7;100600;73;0,0071;0,0;1,6;136;3,4;-1,13;1,06;0;0;nan;31,4;32,9;35,0;36,4;9,6;9,4;8,9;8,3;-11,5;31,7;1329
2023-01-02 01:00:00;14,5;100540;69;0,0071;0,0;2,4;174;5,5;-2,44;0,24;0;0;nan;31,4;32,9;35,0;36,4;9,6;9,4;8,9;8,3;-11,5;31,2;1426
2023-01-02 02:00:00;14,4;100565;68;0,0069;0,0;2,6;168;5,2;-2,55;0,54;0;0;nan;31,4;32,9;35,0;36,4;9,6;9,3;8,9;8,3;-11,5;31,2;1354
2023-01-02 03:00:00;14,2;100560;67;0,0067;0,0;2,8;149;4,4;-2,39;1,43;0;0;nan;31,3;32,8;35,0;36,4;9,6;9,3;8,9;8,3;-11,5;31,0;1778
2023-01-02 04:00:00;14,3;100560;67;0,0068;0,0;3,1;163;6,0;-3,02;0,87;0;0;nan;31,3;32,8;35,0;36,4;9,6;9,3;8,9;8,3;-11,5;31,4;1428
2023-01-02 05:00:00;14,2;100605;66;0,0066;0,0;3,0;174;5,9;-3,0;0,33;0;0;nan;31,3;32,8;35,0;36,4;9,6;9,3;8,9;8,4;-11,6;31,9;1447
2023-01-02 06:00:00;nan;nan;nan;nan;0,0;nan;nan;nan;nan;nan;nan;0;nan;31,3;32,8;35,0;36,4;9,6;9,3;8,9;8,4;-11,6;nan;nan
2023-01-02 07:00:00;13,2;100695;70;0,0066;0,0;2,6;182;4,4;-2,5;-0,14;0;0;nan;31,3;32,8;35,0;36,4;9,5;9,3;8,9;8,4;-11,6;31,9;1507
2023-01-02 08:00:00;nan;nan;nan;nan;0,0;nan;nan;nan;nan;nan;nan;0;nan;31,3;32,8;35,1;36,4;9,5;9,3;8,9;8,4;-11,6;nan;nan
2023-01-02 09:00:00;nan;nan;nan;nan;0,0;nan;nan;nan;nan;nan;nan;0;nan;31,3;32,8;35,1;36,4;9,6;9,3;8,9;8,4;-11,6;nan;nan
2023-01-02 10:00:00;nan;nan;nan;nan;0,0;nan;nan;nan;nan;nan;nan;0;nan;31,5;32,8;35,1;36,4;9,6;9,3;8,9;8,4;-11,6;nan;nan
2023-01-02 11:00:00;nan;nan;nan;nan;0,0;nan;nan;nan;nan;nan;nan;0;nan;31,7;32,8;35,1;36,4;9,7;9,3;8,9;8,4;-11,6;nan;nan
2023-01-02 12:00:00;nan;nan;nan;nan;0,0;nan;nan;nan;nan;nan;nan;0;nan;31,8;32,9;35,1;36,3;9,7;9,4;8,9;8,4;-11,6;nan;nan
2023-01-02 13:00:00;9,9;101110;91;0,0068;0,15;2,5;276;4,6;0,3;-2,47;26;0;nan;33,4;33,0;35,1;36,3;9,7;9,4;8,9;8,5;-11,6;32,2;1388
2023-01-02 14:00:00;9,9;101137;90;0,0068;0,24;2,4;274;4,8;0,19;-2,37;27;0;nan;34,4;33,3;35,1;36,3;9,7;9,4;9,0;8,5;-11,6;31,8;1256
2023-01-02 15:00:00;9,6;101253;91;0,0067;0,7;2,3;266;4,1;-0,14;-2,28;1;0;nan;34,9;33,6;35,2;36,3;9,6;9,4;9,0;8,5;-11,6;31,7;1298
2023-01-02 16:00:00;9,6;101380;89;0,0065;0,0;3,2;262;5,4;-0,43;-3,18;0;0;nan;35,1;34,1;35,2;36,3;9,5;9,4;9,0;8,5;-11,6;31,7;1261
2023-01-02 17:00:00;9,2;101480;88;0,0063;0,0;3,1;263;5,0;-0,35;-3,12;0;0;nan;34,9;34,4;35,3;36,3;9,3;9,4;9,0;8,5;-11,5;31,5;1371
2023-01-02 18:00:00;9,1;101520;84;0,006;0,0;3,8;267;7,6;-0,19;-3,76;0;0;nan;34,7;34,5;35,4;36,3;9,1;9,3;9,0;8,5;-11,4;31,6;1289
2023-01-02 19:00:00;7,9;101612;86;0,0056;0,0;1,3;150;2,9;0,26;-1,0;0;0;nan;34,6;34,6;35,5;36,3;8,8;9,2;9,0;8,5;-11,2;31,4;1260
2023-01-02 20:00:00;6,0;101698;90;0,0051;0,0;0,6;218;1,3;0,03;-0,39;0;0;nan;34,4;34,6;35,6;36,3;8,5;9,1;9,0;8,5;-11,1;31,9;1293
2023-01-02 21:00:00;6,6;101780;86;0,0051;0,0;1,0;271;2,1;0,05;-0,94;0;0;nan;34,3;34,6;35,6;36,3;8,2;8,9;9,0;8,5;-11,1;31,9;1298
2023-01-02 22:00:00;5,3;101850;91;0,005;0,0;0,6;144;1,5;0,01;-0,09;0;0;nan;34,2;34,6;35,7;36,3;8,0;8,8;8,9;8,6;-11,0;32,0;1198
2023-01-02 23:00:00;5,0;101920;90;0,0048;0,0;0,7;106;1,4;0,51;0,28;0;0;nan;34,1;34,6;35,7;36,3;7,7;8,6;8,9;8,6;-11,0;32,0;1264
2023-01-03 00:00:00;5,2;101940;92;0,0049;0,0;0,5;223;1,3;0,12;-0,2;0;0;nan;34,1;34,6;35,7;36,4;7,5;8,5;8,8;8,6;-11,0;31,6;1261
2023-01-03 01:00:00;6,2;101962;92;0,0053;0,0;0,5;31;1,2;0,43;0,28;0;0;nan;34,0;34,6;35,8;36,4;7,5;8,3;8,8;8,6;-10,9;32,1;1289
2023-01-03 02:00:00;6,6;101997;90;0,0054;0,02;0,8;304;1,9;0,28;-0,58;0;0;nan;34,0;34,6;35,8;36,4;7,6;8,2;8,7;8,6;-10,9;32,5;1196
2023-01-03 03:00:00;6,1;102018;91;0,0052;0,0;0,7;94;1,3;0,36;0,03;0;0;nan;33,9;34,5;35,8;36,4;7,5;8,2;8,6;8,6;-10,9;32,5;1268
2023-01-03 04:00:00;6,2;102018;90;0,0053;0,0;0,5;122;1,1;-0,02;-0,06;0;0;nan;33,8;34,5;35,8;36,4;7,5;8,1;8,6;8,6;-10,9;31,5;1245
2023-01-03 05:00:00;6,5;102000;90;0,0053;0,0;0,6;244;1,1;-0,22;-0,53;0;0;nan;33,8;34,5;35,8;36,4;7,5;8,1;8,5;8,6;-10,9;31,2;1233
2023-01-03 06:00:00;5,4;102038;89;0,0049;0,0;0,6;136;1,2;0,06;0,19;0;0;nan;33,7;34,5;35,8;36,4;7,4;8,0;8,5;8,6;-10,9;31,5;1277
2023-01-03 07:00:00;4,6;102043;89;0,0046;0,0;0,5;165;1,3;-0,43;0,14;2;0;nan;33,7;34,5;35,8;36,4;7,1;8,0;8,5;8,6;-10,9;31,3;1185
2023-01-03 08:00:00;6,5;102047;88;0,0052;0,09;1,0;214;2,7;-0,81;-0,59;42;0;nan;33,6;34,5;35,8;36,4;7,0;7,9;8,4;8,6;-10,9;31,2;1250
2023-01-03 09:00:00;8,0;102050;88;0,0058;0,0;1,8;237;3,9;-0,98;-1,56;128;0;nan;33,6;34,4;35,8;36,4;7,0;7,8;8,4;8,6;-10,9;31,6;1221
2023-01-03 10:00:00;9,8;102050;84;0,0062;0,0;2,4;200;4,8;-2,21;-0,79;177;0;nan;33,6;34,4;35,8;36,4;7,2;7,7;8,3;8,5;-10,9;32,0;1284
2023-01-03 11:00:00;10,4;102030;78;0,006;0,0;2,1;180;3,7;-2,14;-0,03;175;0;nan;33,5;34,4;35,8;36,4;7,5;7,7;8,3;8,5;-10,9;31,7;1431
2023-01-03 12:00:00;11,1;101975;74;0,0059;0,0;2,8;235;5,6;-1,52;-2,28;166;0;nan;33,5;34,4;35,8;36,4;7,7;7,8;8,2;8,5;-10,9;31,8;1255
2023-01-03 13:00:00;11,0;101940;70;0,0056;0,0;5,5;254;8,5;-1,38;-5,26;134;0;nan;33,5;34,4;35,8;36,4;7,9;7,9;8,2;8,5;-10,9;32,0;1226
2023-01-03 14:00:00;10,5;101967;69;0,0053;0,0;4,3;241;6,6;-2,04;-3,77;55;0;nan;33,4;34,3;35,8;36,4;8,0;8,0;8,2;8,5;-10,9;32,2;1182
2023-01-03 15:00:00;8,8;102002;71;0,0049;0,0;1,3;204;2,6;-0,79;-0,79;7;0;nan;33,3;34,3;35,8;36,4;7,9;8,0;8,2;8,5;-10,9;32,3;1500
2023-01-03 16:00:00;7,2;102003;75;0,0047;0,0;1,1;150;1,9;-0,98;0,55;0;0;nan;33,3;34,3;35,8;36,4;7,7;8,0;8,2;8,5;-10,9;33,2;1318
2023-01-03 17:00:00;6,9;102007;76;0,0046;0,0;1,6;162;3,1;-1,51;0,42;0;0;nan;33,3;34,3;35,7;36,4;7,4;8,0;8,2;8,5;-10,9;33,1;1261
2023-01-03 18:00:00;7,2;102005;77;0,0048;0,0;1,6;163;3,4;-1,42;0,37;0;0;nan;33,2;34,2;35,7;36,5;7,2;7,9;8,2;8,5;-10,9;33,0;1288
2023-01-03 19:00:00;6,6;101950;80;0,0048;0,0;2,1;95;3,8;-0,22;2,13;0;0;nan;33,2;34,2;35,7;36,5;7,0;7,8;8,2;8,5;-10,9;32,9;1270
2023-01-03 20:00:00;6,8;101880;80;0,0049;0,0;1,7;125;3,1;-0,87;1,37;0;0;nan;33,1;34,2;35,7;36,5;6,9;7,7;8,1;8,5;-10,9;33,0;1166
2023-01-03 21:00:00;7,5;101847;78;0,005;0,0;1,9;155;3,9;-1,76;0,66;0;0;nan;33,1;34,2;35,7;36,5;6,8;7,6;8,1;8,5;-10,9;32,7;1203
2023-01-03 22:00:00;8,3;101788;76;0,0051;0,0;2,5;169;5,5;-2,42;0,44;0;0;nan;33,1;34,2;35,7;36,5;6,7;7,5;8,1;8,4;-10,9;33,0;1278
2023-01-03 23:00:00;8,5;101733;76;0,0052;0,0;2,3;200;6,7;-2,02;-0,78;0;0;nan;33,0;34,1;35,7;36,5;6,7;7,5;8,1;8,4;-10,9;33,5;1255
2023-01-04 00:00:00;9,0;101625;76;0,0053;0,0;3,0;186;7,1;-2,93;-0,29;0;0;nan;33,0;34,1;35,7;36,5;6,8;7,4;8,0;8,4;-10,9;34,4;1238
2023-01-04 01:00:00;9,4;101542;76;0,0055;0,17;3,2;173;6,8;-3,14;0,34;0;0;nan;33,0;34,1;35,7;36,5;6,9;7,4;8,0;8,4;-10,9;34,2;1291
2023-01-04 02:00:00;9,6;101465;77;0,0057;0,0;3,2;203;6,6;-2,78;-1,27;0;0;nan;33,0;34,1;35,7;36,5;7,1;7,4;7,9;8,4;-10,9;33,2;1195
2023-01-04 03:00:00;9,7;101390;77;0,0057;0,0;4,1;227;9,1;-2,75;-3,05;0;0;nan;33,0;34,1;35,7;36,5;7,2;7,4;7,9;8,4;-10,9;32,7;1086
2023-01-04 04:00:00;9,5;101277;80;0,0058;0,03;5,7;238;10,4;-2,98;-4,86;0;0;nan;33,0;34,1;35,7;36,5;7,3;7,5;7,9;8,4;-10,9;33,7;1325
2023-01-04 05:00:00;9,9;101260;79;0,0059;0,0;5,2;235;9,5;-2,96;-4,26;0;0;nan;33,0;34,1;35,7;36,5;7,4;7,5;7,9;8,4;-10,9;33,0;1317
2023-01-04 06:00:00;10,1;101220;79;0,006;0,0;5,1;240;9,0;-2,54;-4,47;0;0;nan;32,9;34,1;35,7;36,5;7,5;7,6;7,9;8,4;-10,9;33,0;1365
2023-01-04 07:00:00;nan;nan;nan;nan;0,0;nan;nan;nan;nan;nan;nan;0;nan;32,9;34,0;35,7;36,5;7,6;7,6;7,9;8,4;-10,9;nan;nan
2023-01-04 08:00:00;11,0;101160;79;0,0064;0,0;3,4;229;7,3;-2,22;-2,64;18;0;nan;32,9;34,0;35,7;36,5;7,7;7,7;7,9;8,4;-10,9;33,2;1215
2023-01-04 09:00:00;11,3;101145;79;0,0065;0,0;3,3;236;7,5;-1,8;-2,73;36;0;nan;32,8;34,0;35,6;36,5;7,9;7,7;7,9;8,3;-10,9;33,0;1408
2023-01-04 10:00:00;11,9;101123;79;0,0068;0,0;5,5;250;10,5;-1,85;-5,07;50;0;nan;32,8;34,0;35,6;36,5;8,2;7,8;7,9;8,3;-10,9;32,6;1232
2023-01-04 11:00:00;11,9;101050;80;0,0068;0,0;6,2;246;10,6;-2,53;-5,67;55;0;nan;32,8;34,0;35,6;36,5;8,4;7,9;7,9;8,3;-10,9;33,0;1244
2023-01-04 12:00:00;12,3;100983;79;0,007;0,0;6,8;249;12,0;-2,39;-6,34;60;0;nan;32,7;33,9;35,6;36,5;8,7;8,1;7,9;8,3;-10,9;33,2;1269
2023-01-04 13:00:00;12,6;100940;79;0,0071;0,0;7,2;251;10,8;-2,31;-6,76;67;0;nan;32,7;33,9;35,6;36,5;8,9;8,2;8,0;8,3;-10,9;33,1;1376
2023-01-04 14:00:00;nan;nan;nan;nan;0,0;nan;nan;nan;nan;nan;nan;0;nan;32,6;33,9;35,6;36,5;9,1;8,4;8,0;8,3;-10,9;nan;nan
2023-01-04 15:00:00;nan;nan;nan;nan;0,0;nan;nan;nan;nan;nan;nan;0;nan;32,6;33,9;35,6;36,5;9,2;8,5;8,1;8,3;-10,9;nan;nan
2023-01-04 16:00:00;nan;nan;nan;nan;0,0;nan;nan;nan;nan;nan;nan;0;nan;32,6;33,9;35,6;36,5;9,3;8,6;8,1;8,3;-10,9;nan;nan
2023-01-04 17:00:00;nan;nan;nan;nan;0,0;nan;nan;nan;nan;nan;nan;0;nan;32,8;33,8;35,6;36,5;9,4;8,7;8,2;8,3;-10,9;nan;nan
2023-01-04 18:00:00;nan;nan;nan;nan;0,0;nan;nan;nan;nan;nan;nan;0;nan;33,6;33,9;35,6;36,5;9,4;8,8;8,2;8,3;-10,9;nan;nan
2023-01-04 19:00:00;nan;nan;nan;nan;0,0;nan;nan;nan;nan;nan;nan;0;nan;33,6;34,1;35,6;36,5;9,4;8,9;8,3;8,3;-10,9;nan;nan
2023-01-04 20:00:00;nan;nan;nan;nan;0,0;nan;nan;nan;nan;nan;nan;0;nan;33,5;34,1;35,6;36,5;9,3;8,9;8,3;8,3;-10,9;nan;nan
2023-01-04 21:00:00;12,6;100975;74;0,0067;0,0;5,1;276;7,3;0,66;-5,06;0;0;nan;33,4;34,2;35,7;36,5;9,2;8,9;8,4;8,3;-10,9;32,8;1548
2023-01-04 22:00:00;nan;nan;nan;nan;0,0;nan;nan;nan;nan;nan;nan;0;nan;33,4;34,2;35,7;36,5;9,1;8,9;8,4;8,3;-10,9;nan;nan
2023-01-04 23:00:00;11,9;101010;74;0,0064;0,0;4,2;275;6,1;0,41;-4,2;0;0;nan;33,3;34,2;35,7;36,5;9,0;8,9;8,5;8,3;-10,9;32,8;1365
2023-01-05 00:00:00;11,7;101070;76;0,0064;0,0;5,6;277;9,9;0,73;-5,52;0;0;nan;33,3;34,2;35,7;36,5;8,9;8,9;8,5;8,3;-10,9;32,0;1777
2023-01-05 01:00:00;nan;nan;nan;nan;0,0;nan;nan;nan;nan;nan;nan;0;nan;33,2;34,2;35,7;36,5;8,9;8,8;8,5;8,4;-10,9;nan;nan
2023-01-05 02:00:00;11,6;101077;77;0,0065;0,0;4,9;276;8,2;0,55;-4,83;0;0;nan;33,1;34,1;35,7;36,5;8,9;8,8;8,5;8,4;-10,9;30,7;1551
2023-01-05 03:00:00;11,4;101100;77;0,0064;0,0;5,0;277;9,8;0,61;-4,94;0;0;nan;33,1;34,1;35,7;36,5;8,9;8,8;8,5;8,4;-10,9;30,6;1313
2023-01-05 04:00:00;11,3;101120;77;0,0064;0,0;4,3;271;8,1;0,09;-4,34;0;0;nan;33,0;34,1;35,7;36,5;8,9;8,8;8,5;8,4;-10,9;31,0;1294
2023-01-05 05:00:00;nan;nan;nan;nan;0,0;nan;nan;nan;nan;nan;nan;0;nan;33,0;34,1;35,7;36,5;8,9;8,8;8,5;8,4;-10,9;nan;nan
2023-01-05 06:00:00;nan;nan;nan;nan;0,0;nan;nan;nan;nan;nan;nan;0;nan;33,0;34,1;35,7;36,5;8,9;8,8;8,5;8,4;-10,9;nan;nan
2023-01-05 07:00:00;11,0;101230;79;0,0064;0,0;3,9;271;6,9;0,1;-3,94;0;0;nan;32,9;34,1;35,7;36,5;8,8;8,8;8,5;8,4;-10,9;30,2;1364
2023-01-05 08:00:00;11,0;101270;80;0,0065;0,0;3,6;272;7,3;0,17;-3,64;4;0;nan;32,9;34,0;35,7;36,5;8,8;8,8;8,5;8,4;-10,9;30,0;1280
2023-01-05 09:00:00;nan;nan;nan;nan;0,0;nan;nan;nan;nan;nan;nan;0;nan;33,0;34,0;35,7;36,5;8,9;8,8;8,6;8,4;-10,9;nan;nan
2023-01-05 10:00:00;nan;nan;nan;nan;0,0;nan;nan;nan;nan;nan;nan;0;nan;33,0;34,0;35,7;36,5;9,0;8,8;8,6;8,4;-10,9;nan;nan
2023-01-05 11:00:00;11,9;101425;78;0,0067;0,0;3,8;268;7,6;-0,15;-3,8;159;0;nan;32,9;34,0;35,6;36,5;9,2;8,8;8,6;8,4;-10,9;30,1;1106
2023-01-05 12:00:00;11,9;101427;77;0,0066;0,0;4,1;273;8,0;0,28;-4,13;152;0;nan;32,8;33,9;35,6;36,5;9,4;8,9;8,6;8,5;-10,9;29,7;1244
2023-01-05 13:00:00;11,9;101430;75;0,0064;0,0;3,8;268;6,8;-0,12;-3,78;100;0;nan;32,6;33,9;35,6;36,5;9,5;9,0;8,6;8,5;-10,9;29,4;1264
2023-01-05 14:00:00;11,6;101445;77;0,0065;0,0;2,6;260;4,9;-0,43;-2,6;48;0;nan;32,6;33,9;35,6;36,5;9,6;9,1;8,6;8,5;-10,9;29,2;1324
2023-01-05 15:00:00;11,3;101467;78;0,0064;0,0;1,4;260;3,2;-0,14;-1,4;12;0;nan;32,5;33,8;35,6;36,5;9,6;9,1;8,6;8,5;-10,9;28,5;1284
2023-01-05 16:00:00;9,8;101475;88;0,0065;0,0;0,8;200;1,6;-0,4;-0,46;0;0;nan;32,5;33,8;35,6;36,5;9,5;9,1;8,7;8,5;-10,9;28,2;1389
2023-01-05 17:00:00;9,3;101466;91;0,0065;0,09;1,0;28;1,6;0,73;0,54;0;0;nan;32,5;33,8;35,6;36,5;9,3;9,2;8,7;8,5;-10,9;28,6;1409
2023-01-05 18:00:00;9,4;101420;92;0,0067;0,0;1,8;81;2,5;0,27;1,76;0;0;nan;32,5;33,8;35,6;36,5;9,2;9,1;8,7;8,5;-10,9;28,8;1340
2023-01-05 19:00:00;9,9;101390;92;0,0069;0,35;1,3;223;2,6;-0,96;-0,76;0;0;nan;32,5;33,8;35,6;36,5;9,2;9,1;8,8;8,5;-10,9;29,6;1162
2023-01-05 20:00:00;9,8;101388;94;0,007;0,47;0,7;158;1,6;-0,17;0,01;0;0;nan;32,7;33,8;35,6;36,5;9,2;9,1;8,8;8,5;-10,9;29,5;1571
2023-01-05 21:00:00;9,6;101370;95;0,007;0,33;0,8;56;1,4;0,35;0,55;0;0;nan;33,0;33,8;35,6;36,5;9,2;9,1;8,8;8,5;-10,9;29,4;1242
2023-01-05 22:00:00;9,7;101348;95;0,0071;0,57;0,6;41;1,1;0,44;0,37;0;0;nan;33,2;33,9;35,6;36,5;9,2;9,1;8,8;8,5;-10,9;29,6;1330
2023-01-05 23:00:00;9,5;101332;96;0,0071;0,04;0,8;37;1,4;0,56;0,52;0;0;nan;33,5;34,0;35,6;36,5;9,2;9,1;8,8;8,6;-10,9;28,9;1707
2023-01-06 00:00:00;9,9;101300;94;0,007;0,0;1,1;191;1,9;0,19;-0,83;0;0;nan;33,6;34,1;35,6;36,5;9,1;9,0;8,8;8,6;-10,9;28,5;1300
2023-01-06 01:00:00;10,2;101285;89;0,0068;0,0;1,0;162;2,1;-0,19;-0,58;0;0;nan;33,5;34,1;35,6;36,5;9,1;9,0;8,8;8,6;-10,9;28,4;1290
2023-01-06 02:00:00;9,6;101247;89;0,0065;0,0;0,5;37;1,1;0,39;0,33;0;0;nan;33,4;34,2;35,7;36,5;9,0;9,0;8,8;8,6;-10,9;27,9;1555
2023-01-06 03:00:00;10,0;101216;86;0,0065;0,0;1,1;150;1,8;-0,9;0,5;0;0;nan;33,4;34,2;35,7;36,5;9,0;9,0;8,8;8,6;-10,9;27,9;1613
2023-01-06 04:00:00;10,2;101190;84;0,0064;0,0;1,0;202;2,5;-0,78;-0,38;0;0;nan;33,4;34,2;35,7;36,5;9,0;9,0;8,8;8,6;-10,9;28,2;1249
2023-01-06 05:00:00;10,3;101125;80;0,0062;0,0;1,2;209;2,8;-0,96;-0,59;0;0;nan;33,3;34,2;35,7;36,5;8,9;8,9;8,8;8,6;-10,9;27,8;1288
2023-01-06 06:00:00;10,5;101115;79;0,0062;0,0;3,6;252;5,6;-1,06;-3,47;0;0;nan;33,3;34,2;35,7;36,5;8,9;8,9;8,8;8,6;-10,9;28,0;1311
2023-01-06 07:00:00;nan;nan;nan;nan;0,0;nan;nan;nan;nan;nan;nan;0;nan;33,2;34,2;35,7;36,5;8,8;8,9;8,8;8,6;-10,9;nan;nan
2023-01-06 08:00:00;10,8;101110;80;0,0064;0,0;4,6;253;7,4;-1,3;-4,37;25;0;nan;33,2;34,2;35,7;36,5;8,7;8,9;8,8;8,6;-10,9;28,6;1355
2023-01-06 09:00:00;11,0;101165;80;0,0065;0,0;5,3;245;8,5;-2,17;-4,84;62;0;nan;33,2;34,2;35,7;36,5;8,8;8,8;8,8;8,6;-10,9;27,7;1348
2023-01-06 10:00:00;11,5;101190;81;0,0068;0,0;5,0;250;8,9;-1,7;-4,72;100;0;nan;33,1;34,2;35,7;36,5;8,9;8,8;8,8;8,7;-10,9;28,7;1338
2023-01-06 11:00:00;11,5;101187;84;0,007;0,0;4,1;251;6,5;-1,31;-3,83;129;0;nan;33,1;34,1;35,8;36,5;9,1;8,9;8,8;8,7;-10,9;28,7;1531
2023-01-06 12:00:00;11,9;101160;84;0,0072;0,0;3,7;248;6,7;-1,32;-3,47;136;0;nan;33,1;34,1;35,8;36,5;9,4;8,9;8,8;8,7;-10,9;29,1;1280
2023-01-06 13:00:00;11,4;101180;86;0,0071;0,0;3,6;251;6,6;-1,18;-3,45;67;0;nan;33,0;34,1;35,8;36,5;9,6;9,0;8,8;8,7;-10,9;29,3;1299
2023-01-06 14:00:00;nan;nan;nan;nan;0,0;nan;nan;nan;nan;nan;nan;0;nan;33,0;34,1;35,8;36,5;9,7;9,2;8,8;8,7;-10,9;nan;nan
2023-01-06 15:00:00;nan;nan;nan;nan;0,0;nan;nan;nan;nan;nan;nan;0;nan;32,9;34,1;35,7;36,5;9,7;9,2;8,8;8,7;-10,9;nan;nan
2023-01-06 16:00:00;11,4;101190;83;0,0069;0,0;1,7;252;3,6;-0,51;-1,58;0;0;nan;32,9;34,0;35,7;36,5;9,7;9,3;8,8;8,7;-10,9;29,4;1447
2023-01-06 17:00:00;nan;nan;nan;nan;0,0;nan;nan;nan;nan;nan;nan;0;nan;32,9;34,0;35,7;36,5;9,6;9,3;8,9;8,7;-10,9;nan;nan
2023-01-06 18:00:00;nan;nan;nan;nan;0,0;nan;nan;nan;nan;nan;nan;0;nan;32,8;34,0;35,7;36,5;9,4;9,3;8,9;8,7;-10,9;nan;nan
2023-01-06 19:00:00;10,4;101190;86;0,0067;0,0;1,2;152;2,5;-1,12;0,47;0;0;nan;32,8;34,0;35,7;36,5;9,3;9,3;8,9;8,7;-10,9;29,6;1346
2023-01-06 20:00:00;10,8;101160;83;0,0066;0,0;1,8;174;3,8;-1,76;0,19;0;0;nan;32,8;34,0;35,7;36,5;9,2;9,2;8,9;8,7;-10,9;30,7;1223
2023-01-06 21:00:00;11,0;101170;82;0,0066;0,0;1,8;205;3,3;-1,64;-0,78;0;0;nan;32,8;34,0;35,7;36,5;9,2;9,2;8,9;8,7;-10,9;32,3;1540
2023-01-06 22:00:00;9,6;101180;86;0,0064;0,0;1,2;138;2,2;-0,86;0,74;0;0;nan;32,7;34,0;35,7;36,5;9,1;9,2;9,0;8,7;-10,9;32,5;1666
2023-01-06 23:00:00;8,9;101165;88;0,0061;0,0;0,9;127;1,9;-0,53;0,58;0;0;nan;32,7;33,9;35,7;36,5;9,0;9,1;9,0;8,7;-10,9;32,4;1204
2023-01-07 00:00:00;9,3;101118;85;0,0062;0,0;1,4;141;2,9;-1,2;0,53;0;0;nan;32,7;33,9;35,7;36,5;8,8;9,1;9,0;8,7;-10,9;32,1;1446
2023-01-07 01:00:00;10,1;101050;85;0,0065;0,0;2,1;171;3,8;-2,08;0,32;0;0;nan;32,7;33,9;35,7;36,5;8,7;9,0;8,9;8,7;-10,9;32,3;1305
2023-01-07 02:00:00;9,3;101042;86;0,0062;0,0;1,3;185;2,5;-0,29;-0,29;0;0;nan;32,6;33,9;35,7;36,5;8,6;8,9;8,9;8,8;-10,9;32,7;1255
2023-01-07 03:00:00;8,1;101008;88;0,0058;0,0;1,1;98;2,3;0,2;0,15;0;0;nan;32,6;34,1;35,7;36,5;8,4;8,9;8,9;8,8;-10,9;32,7;1266
2023-01-07 04:00:00;10,1;100957;84;0,0064;0,0;1,4;182;3,2;-1,09;-0,09;0;0;nan;32,6;34,0;35,7;36,5;8,3;8,8;8,9;8,8;-10,9;33,2;1312
2023-01-07 05:00:00;10,2;100892;83;0,0064;0,0;2,0;134;3,8;-1,36;1,41;0;0;nan;32,6;33,8;35,7;36,5;8,4;8,7;8,9;8,8;-10,9;33,4;1308
2023-01-07 06:00:00;9,9;100843;84;0,0063;0,0;2,2;114;4,1;-0,8;1,98;0;0;nan;32,6;33,8;35,7;36,5;8,5;8,7;8,8;8,8;-10,9;33,2;1284
2023-01-07 07:00:00;9,6;100798;85;0,0063;0,0;2,6;82;4,1;0,3;2,55;2;0;nan;32,6;33,8;35,6;36,5;8,5;8,7;8,8;8,8;-10,9;33,3;1285
2023-01-07 08:00:00;9,5;100725;86;0,0063;0,0;2,8;79;4,1;0,52;2,7;29;0;nan;32,5;33,8;35,6;36,5;8,5;8,7;8,8;8,8;-10,9;33,6;1264
2023-01-07 09:00:00;10,0;100658;86;0,0065;0,0;3,5;74;5,8;0,94;3,38;94;0;nan;32,5;33,8;35,6;36,5;8,6;8,7;8,8;8,8;-10,9;33,6;1247
2023-01-07 10:00:00;nan;nan;nan;nan;0,0;nan;nan;nan;nan;nan;nan;0;nan;32,5;33,8;35,6;36,5;8,7;8,7;8,8;8,8;-10,9;nan;nan
2023-01-07 11:00:00;10,7;100530;76;0,0061;0,0;2,5;146;3,4;-2,11;1,42;51;0;nan;32,4;33,8;35,6;36,5;8,8;8,7;8,7;8,8;-10,9;34,8;1853
2023-01-07 12:00:00;nan;nan;nan;nan;0,0;nan;nan;nan;nan;nan;nan;0;nan;32,4;33,7;35,6;36,5;8,9;8,8;8,8;8,8;-10,9;nan;nan
2023-01-07 13:00:00;nan;nan;nan;nan;0,0;nan;nan;nan;nan;nan;nan;0;nan;32,3;33,7;35,6;36,5;9,0;8,8;8,8;8,8;-10,9;nan;nan
2023-01-07 14:00:00;nan;nan;nan;nan;0,0;nan;nan;nan;nan;nan;nan;0;nan;32,3;33,6;35,6;36,5;9,1;8,9;8,8;8,8;-10,9;nan;nan
2023-01-07 15:00:00;9,8;100200;73;0,0055;0,0;2,4;134;5,0;-1,67;1,77;4;0;nan;32,2;33,6;35,6;36,5;9,0;8,9;8,8;8,8;-11,0;35,3;1511
2023-01-07 16:00:00;9,1;100170;75;0,0054;0,0;2,5;83;4,4;0,28;2,47;0;0;nan;32,2;33,6;35,6;36,5;8,7;8,9;8,8;8,8;-11,0;35,5;1406
2023-01-07 17:00:00;9,2;100140;76;0,0055;0,0;2,5;97;4,4;-0,24;2,42;0;0;nan;32,2;33,8;35,6;36,5;8,5;8,8;8,8;8,8;-11,0;36,6;1354
2023-01-07 18:00:00;9,8;100072;76;0,0057;0,0;3,0;100;5,1;-0,45;2,85;0;0;nan;32,2;33,8;35,6;36,5;8,4;8,7;8,8;8,8;-11,0;37,1;1449
2023-01-07 19:00:00;nan;nan;nan;nan;0,0;nan;nan;nan;nan;nan;nan;0;nan;32,2;33,8;35,5;36,5;8,3;8,7;8,8;8,8;-11,0;nan;nan
2023-01-07 20:00:00;nan;nan;nan;nan;0,0;nan;nan;nan;nan;nan;nan;0;nan;32,1;33,7;35,5;36,5;8,4;8,6;8,8;8,8;-11,0;nan;nan
2023-01-07 21:00:00;11,0;99987;72;0,0059;0,0;3,4;186;7,6;-3,31;-0,38;0;0;nan;32,1;33,7;35,5;36,5;8,4;8,6;8,8;8,8;-11,0;37,2;1530
2023-01-07 22:00:00;10,8;99955;74;0,006;0,0;4,1;177;9,2;-4,11;0,19;0;0;nan;32,1;33,6;35,5;36,5;8,4;8,6;8,7;8,8;-11,0;37,2;1356
2023-01-07 23:00:00;10,4;99930;78;0,0061;0,0;3,1;169;6,8;-3,04;0,54;0;0;nan;32,1;33,6;35,5;36,4;8,4;8,6;8,7;8,8;-11,0;36,6;1477
2023-01-08 00:00:00;10,3;99905;80;0,0063;0,0;2,3;156;4,2;-2,08;0,87;0;0;nan;32,1;33,6;35,5;36,4;8,4;8,6;8,7;8,8;-11,0;37,0;1555
2023-01-08 01:00:00;10,3;99858;80;0,0063;0,0;1,7;146;3,5;-1,32;0,78;0;0;nan;32,0;33,5;35,5;36,4;8,5;8,6;8,7;8,8;-11,0;37,0;1424
2023-01-08 02:00:00;10,1;99807;81;0,0063;0,0;2,2;109;4,0;-0,85;1,86;0;0;nan;32,0;33,5;35,5;36,4;8,5;8,6;8,7;8,8;-11,0;36,2;1372
2023-01-08 03:00:00;10,2;99745;82;0,0064;0,0;1,4;187;3,4;-1,14;0,22;0;0;nan;32,0;33,5;35,5;36,4;8,5;8,6;8,7;8,8;-11,1;36,4;1431
2023-01-08 04:00:00;10,0;99723;81;0,0063;0,0;1,1;149;2,6;-0,99;0,55;0;0;nan;32,1;33,5;35,5;36,4;8,5;8,6;8,7;8,8;-11,1;36,5;1329
2023-01-08 05:00:00;10,0;99690;80;0,0061;0,0;1,7;170;3,2;-1,62;0,28;0;0;nan;32,1;33,4;35,5;36,4;8,5;8,6;8,7;8,8;-11,1;37,0;1292
2023-01-08 06:00:00;9,8;99685;79;0,006;0,0;2,1;162;4,2;-1,88;0,64;0;0;nan;32,1;33,4;35,5;36,4;8,4;8,6;8,7;8,8;-11,1;37,2;1353
2023-01-08 07:00:00;9,6;99710;81;0,006;0,02;2,1;206;4,3;-1,13;-0,93;0;0;nan;32,0;33,4;35,5;36,4;8,4;8,6;8,7;8,8;-11,1;37,3;1324
2023-01-08 08:00:00;9,0;99712;81;0,0058;0,02;1,7;222;3,2;-0,77;-1,12;9;0;nan;32,0;33,4;35,5;36,4;8,3;8,6;8,7;8,8;-11,1;37,5;1379
2023-01-08 09:00:00;9,4;99650;84;0,0062;0,0;1,2;99;2,5;-0,13;1,14;111;0;nan;32,0;33,4;35,5;36,4;8,3;8,5;8,7;8,8;-11,1;38,4;1412
2023-01-08 10:00:00;10,4;99610;80;0,0063;0,0;1,8;140;3,1;-1,38;1,16;88;0;nan;31,9;33,4;35,4;36,4;8,5;8,5;8,6;8,8;-11,1;38,8;1607
2023-01-08 11:00:00;11,0;99550;79;0,0065;0,0;2,7;139;5,1;-2,1;1,77;107;0;nan;31,9;33,3;35,4;36,4;8,7;8,6;8,6;8,8;-11,1;38,5;1368
2023-01-08 12:00:00;10,6;99457;76;0,0061;0,0;4,4;247;8,2;-1,68;-4,1;59;0;nan;31,9;33,3;35,4;36,4;8,9;8,6;8,6;8,8;-11,1;39,1;1417
2023-01-08 13:00:00;nan;nan;nan;nan;0,0;nan;nan;nan;nan;nan;nan;0;nan;31,8;33,3;35,4;36,4;8,9;8,7;8,6;8,8;-11,1;nan;nan
2023-01-08 14:00:00;10,4;99340;73;0,0058;0,0;3,8;171;5,6;-3,78;0,59;41;0;nan;31,8;33,3;35,4;36,4;8,9;8,7;8,6;8,8;-11,2;39,6;1655